| time (UTC) | temp F | wind direction | speed MPH | gust MPH | rain 1hr in | rain 24hr in | rain mn in | humidity % | barometer mb |
| 20260510123019 | 53 | 34 | 7.0 | 11.0 | 0.00 | 0.00 | 0.00 | 80 | 1012.4 |
| 20260510121519 | 53 | 18 | 7.0 | 13.0 | 0.00 | 0.00 | 0.00 | 79 | 1012.6 |
| 20260510120016 | 53 | 346 | 8.0 | 12.0 | 0.00 | 0.00 | 0.00 | 78 | 1012.7 |
| 20260510114515 | 53 | 3 | 9.0 | 12.0 | 0.00 | 0.00 | 0.00 | 78 | 1012.9 |
| 20260510113014 | 53 | 359 | 7.0 | 12.0 | 0.00 | 0.00 | 0.00 | 77 | 1013.0 |
| 20260510111513 | 53 | 20 | 7.0 | 11.0 | 0.00 | 0.00 | 0.00 | 76 | 1013.2 |
| 20260510110012 | 53 | 17 | 7.0 | 11.0 | 0.00 | 0.00 | 0.00 | 76 | 1013.2 |
| 20260510104510 | 53 | 14 | 8.0 | 14.0 | 0.00 | 0.00 | 0.00 | 75 | 1013.4 |
| 20260510103007 | 54 | 17 | 4.0 | 6.0 | 0.00 | 0.00 | 0.00 | 73 | 1013.6 |
| 20260510101506 | 54 | 3 | 0.0 | 2.0 | 0.00 | 0.00 | 0.00 | 72 | 1014.0 |
| 20260510100003 | 54 | 260 | 1.0 | 6.0 | 0.00 | 0.00 | 0.00 | 73 | 1014.0 |
| 20260510094607 | 53 | 263 | 1.0 | 5.0 | 0.00 | 0.00 | 0.00 | 72 | 1014.0 |
| 20260510093101 | 53 | 309 | 1.0 | 5.0 | 0.00 | 0.00 | 0.00 | 72 | 1014.2 |
| 20260510091555 | 53 | 278 | 1.0 | 7.0 | 0.00 | 0.00 | 0.00 | 73 | 1014.5 |
| 20260510084610 | 52 | 247 | 1.0 | 4.0 | 0.00 | 0.00 | 0.00 | 73 | 1014.4 |
| 20260510083050 | 52 | 227 | 3.0 | 6.0 | 0.00 | 0.00 | 0.00 | 73 | 1014.4 |
| 20260510081553 | 52 | 227 | 3.0 | 8.0 | 0.00 | 0.00 | 0.00 | 74 | 1014.6 |
| 20260510080049 | 51 | 219 | 2.0 | 6.0 | 0.00 | 0.00 | 0.00 | 75 | 1014.5 |
| 20260510074542 | 50 | 176 | 4.0 | 6.0 | 0.00 | 0.00 | 0.00 | 76 | 1014.6 |
| 20260510073039 | 50 | 252 | 2.0 | 8.0 | 0.00 | 0.00 | 0.00 | 77 | 1014.8 |
| 20260510071540 | 48 | 226 | 3.0 | 7.0 | 0.00 | 0.00 | 0.00 | 78 | 1014.8 |
| 20260510070038 | 48 | 216 | 3.0 | 6.0 | 0.00 | 0.00 | 0.00 | 78 | 1015.0 |
| 20260510064531 | 47 | 204 | 2.0 | 5.0 | 0.00 | 0.00 | 0.00 | 78 | 1015.0 |
| 20260510063029 | 46 | 217 | 0.0 | 3.0 | 0.00 | 0.00 | 0.00 | 78 | 1015.3 |
| 20260510061526 | 46 | 169 | 2.0 | 4.0 | 0.00 | 0.00 | 0.00 | 78 | 1015.3 |
| 20260510060024 | 46 | 165 | 1.0 | 3.0 | 0.00 | 0.00 | 0.00 | 78 | 1015.3 |
| 20260510054523 | 46 | 156 | 0.0 | 2.0 | 0.00 | 0.00 | 0.00 | 78 | 1015.4 |
| 20260510053024 | 45 | 160 | 0.0 | 2.0 | 0.00 | 0.00 | 0.00 | 78 | 1015.7 |
| 20260510051519 | 45 | 139 | 0.0 | 4.0 | 0.00 | 0.00 | 0.00 | 78 | 1015.8 |
| 20260510050016 | 45 | 156 | 1.0 | 3.0 | 0.00 | 0.00 | 0.00 | 78 | 1015.8 |
| 20260510044527 | 45 | 162 | 1.0 | 4.0 | 0.00 | 0.00 | 0.00 | 78 | 1016.1 |
| 20260510043013 | 44 | 117 | 2.0 | 3.0 | 0.00 | 0.00 | 0.00 | 78 | 1016.2 |
| 20260510041512 | 44 | 158 | 1.0 | 2.0 | 0.00 | 0.00 | 0.00 | 78 | 1016.6 |
| 20260510040011 | 44 | 144 | 0.0 | 1.0 | 0.00 | 0.00 | 0.00 | 78 | 1016.7 |
| 20260510034508 | 44 | 157 | 0.0 | 1.0 | 0.00 | 0.00 | 0.00 | 78 | 1016.7 |
| 20260510033007 | 43 | 148 | 0.0 | 1.0 | 0.00 | 0.00 | 0.00 | 78 | 1016.7 |
| 20260510031505 | 42 | 195 | 0.0 | 1.0 | 0.00 | 0.00 | 0.00 | 78 | 1016.8 |
| 20260510030003 | 42 | 153 | 0.0 | 1.0 | 0.00 | 0.00 | 0.00 | 78 | 1016.9 |
| 20260510024502 | 42 | 146 | 0.0 | 1.0 | 0.00 | 0.00 | 0.00 | 78 | 1017.1 |
| 20260510023100 | 42 | 203 | 0.0 | 2.0 | 0.00 | 0.00 | 0.00 | 77 | 1017.3 |
| 20260510021601 | 42 | 167 | 1.0 | 3.0 | 0.00 | 0.00 | 0.00 | 78 | 1017.3 |
| 20260510020057 | 43 | 174 | 2.0 | 4.0 | 0.00 | 0.00 | 0.00 | 77 | 1017.4 |
| 20260510014555 | 43 | 162 | 1.0 | 3.0 | 0.00 | 0.00 | 0.00 | 77 | 1017.6 |
| 20260510013052 | 42 | 179 | 1.0 | 3.0 | 0.00 | 0.00 | 0.00 | 77 | 1017.8 |
| 20260510011550 | 43 | 205 | 1.0 | 2.0 | 0.00 | 0.00 | 0.00 | 77 | 1018.0 |
| 20260510010048 | 43 | 211 | 1.0 | 3.0 | 0.00 | 0.00 | 0.00 | 77 | 1018.2 |
| 20260510004545 | 42 | 203 | 1.0 | 1.0 | 0.00 | 0.00 | 0.00 | 77 | 1018.5 |
| 20260510003043 | 42 | 176 | 0.0 | 1.0 | 0.00 | 0.00 | 0.00 | 77 | 1018.8 |
| 20260510001544 | 42 | 203 | 0.0 | 2.0 | 0.00 | 0.00 | 0.00 | 76 | 1018.9 |
| 20260510000058 | 42 | 218 | 0.0 | 1.0 | 0.00 | 0.00 | 0.00 | 76 | 1019.4 |
| 20260509234548 | 42 | 226 | 0.0 | 1.0 | 0.00 | 0.00 | 0.00 | 75 | 1019.5 |
| 20260509233034 | 42 | 240 | 0.0 | 1.0 | 0.00 | 0.00 | 0.00 | 75 | 1019.6 |
| 20260509231531 | 43 | 268 | 0.0 | 2.0 | 0.00 | 0.00 | 0.00 | 74 | 1019.8 |
| 20260509230028 | 43 | 248 | 1.0 | 3.0 | 0.00 | 0.00 | 0.00 | 73 | 1020.0 |
| 20260509224526 | 43 | 226 | 1.0 | 2.0 | 0.00 | 0.00 | 0.00 | 72 | 1020.0 |
| 20260509223023 | 44 | 224 | 0.0 | 2.0 | 0.00 | 0.00 | 0.00 | 71 | 1020.1 |
| 20260509221521 | 44 | 221 | 1.0 | 2.0 | 0.00 | 0.00 | 0.00 | 70 | 1020.3 |
| 20260509220020 | 45 | 216 | 2.0 | 3.0 | 0.00 | 0.00 | 0.00 | 69 | 1020.3 |
| 20260509214526 | 45 | 236 | 1.0 | 2.0 | 0.00 | 0.00 | 0.00 | 68 | 1020.3 |
| 20260509213017 | 46 | 217 | 0.0 | 1.0 | 0.00 | 0.00 | 0.00 | 69 | 1020.4 |
| 20260509211519 | 46 | 222 | 0.0 | 2.0 | 0.00 | 0.00 | 0.00 | 67 | 1020.3 |
| 20260509210017 | 47 | 222 | 0.0 | 1.0 | 0.00 | 0.00 | 0.00 | 66 | 1020.5 |
| 20260509204523 | 49 | 245 | 0.0 | 1.0 | 0.00 | 0.00 | 0.00 | 65 | 1020.6 |
| 20260509203015 | 50 | 239 | 0.0 | 2.0 | 0.00 | 0.00 | 0.00 | 62 | 1020.5 |
| 20260509201515 | 50 | 251 | 1.0 | 2.0 | 0.00 | 0.00 | 0.00 | 60 | 1020.5 |
| 20260509200014 | 51 | 252 | 1.0 | 3.0 | 0.00 | 0.00 | 0.00 | 57 | 1020.5 |
| 20260509194517 | 52 | 235 | 1.0 | 3.0 | 0.00 | 0.00 | 0.00 | 55 | 1020.6 |
| 20260509193013 | 53 | 263 | 1.0 | 4.0 | 0.00 | 0.00 | 0.00 | 53 | 1020.5 |
| 20260509191518 | 54 | 229 | 1.0 | 4.0 | 0.00 | 0.00 | 0.00 | 52 | 1020.5 |
| 20260509190013 | 54 | 237 | 0.0 | 2.0 | 0.00 | 0.00 | 0.00 | 53 | 1020.4 |
| 20260509184515 | 55 | 244 | 0.0 | 1.0 | 0.00 | 0.00 | 0.00 | 58 | 1020.2 |
| 20260509183012 | 56 | 283 | 0.0 | 1.0 | 0.00 | 0.00 | 0.00 | 61 | 1020.1 |
| 20260509181512 | 56 | 333 | 0.0 | 3.0 | 0.00 | 0.00 | 0.00 | 63 | 1020.3 |
| 20260509180013 | 55 | 325 | 1.0 | 5.0 | 0.00 | 0.00 | 0.00 | 66 | 1020.2 |
| 20260509174509 | 55 | 347 | 3.0 | 6.0 | 0.00 | 0.00 | 0.00 | 73 | 1020.1 |
| 20260509173008 | 55 | 23 | 5.0 | 9.0 | 0.00 | 0.00 | 0.00 | 74 | 1020.2 |
| 20260509171507 | 55 | 6 | 6.0 | 10.0 | 0.00 | 0.00 | 0.00 | 75 | 1020.1 |
| 20260509170006 | 55 | 338 | 6.0 | 11.0 | 0.00 | 0.00 | 0.00 | 74 | 1020.3 |
| 20260509164605 | 55 | 343 | 6.0 | 15.0 | 0.00 | 0.00 | 0.00 | 72 | 1020.2 |
| 20260509163003 | 59 | 333 | 7.0 | 11.0 | 0.00 | 0.00 | 0.00 | 64 | 1020.2 |
| 20260509161502 | 60 | 220 | 6.0 | 8.0 | 0.00 | 0.00 | 0.00 | 41 | 1020.3 |
| 20260509160100 | 58 | 50 | 1.0 | 6.0 | 0.00 | 0.00 | 0.00 | 59 | 1020.5 |
| 20260509154558 | 60 | 281 | 5.0 | 10.0 | 0.00 | 0.00 | 0.00 | 56 | 1020.6 |
| 20260509153055 | 60 | 233 | 4.0 | 9.0 | 0.00 | 0.00 | 0.00 | 40 | 1020.8 |
| 20260509151557 | 57 | 47 | 5.0 | 9.0 | 0.00 | 0.00 | 0.00 | 59 | 1020.9 |
| 20260509150047 | 55 | 94 | 2.0 | 10.0 | 0.00 | 0.00 | 0.00 | 70 | 1021.0 |
| 20260509144645 | 55 | 62 | 7.0 | 9.0 | 0.00 | 0.00 | 0.00 | 73 | 1021.1 |
| 20260509143054 | 54 | 43 | 6.0 | 11.0 | 0.00 | 0.00 | 0.00 | 73 | 1021.2 |
| 20260509141542 | 54 | 64 | 7.0 | 10.0 | 0.00 | 0.00 | 0.00 | 73 | 1021.5 |
| 20260509140040 | 54 | 40 | 6.0 | 9.0 | 0.00 | 0.00 | 0.00 | 72 | 1021.5 |
| 20260509134559 | 54 | 35 | 9.0 | 11.0 | 0.00 | 0.00 | 0.00 | 71 | 1021.7 |
| 20260509133043 | 54 | 51 | 7.0 | 12.0 | 0.00 | 0.00 | 0.00 | 71 | 1022.1 |
| 20260509131537 | 54 | 51 | 6.0 | 12.0 | 0.00 | 0.00 | 0.00 | 69 | 1022.3 |
| 20260509130044 | 54 | 41 | 7.0 | 11.0 | 0.00 | 0.00 | 0.00 | 68 | 1022.3 |
| 20260509124535 | 54 | 60 | 7.0 | 12.0 | 0.00 | 0.00 | 0.00 | 67 | 1022.6 |